sat.trackr.live / text

‹ back to catalog

STARLINK-34408

NORAD 64363 · 2025-126V

PAYLOAD ACTIVE UNKNOWN

§ Identity

Operator
Country
US
Launch date
2025-06-13
Launch site
AFWTR
Launch vehicle
Mass (kg)
RCS (m²)

Purposes: comms

External: N2YO · Heavens-Above · Gunter

§ Orbital elements

Epoch: 2026-09-20T23:30:45.748224Z

Period
94.14 min
Inclination
69.9999°
Eccentricity
0.0002978
Mean motion
15.29591033 rev/d
Perigee alt
475.0 km
Apogee alt
479.1 km
Semi-major
6,855.2 km
B*
3.1270e-4
RAAN
259.6976°
Arg perigee
269.5638°
Mean anomaly
90.5195°
Rev number
6,999

§ Raw data

STARLINK-344081 64363U 25126V   26263.97969616  .00008875  00000+0  31270-3 0  99932 64363  69.9999 259.6976 0002978 269.5638  90.5195 15.29591033 69994

JSON: /api/v1/satellites/64363 · /tle

For live sub-satellite position, see the globe view (requires WebGL).

§ Visibility from observer

Set your observer location to see the next 7 days of passes ≥ 10°. The values pass through the URL so the page stays shareable.

No JS? Fill the form by hand. The geolocation button needs JavaScript.